| time (UTC) | temp F | wind direction | speed MPH | gust MPH | rain 1hr in | rain 24hr in | rain mn in | humidity % | barometer mb |
| 20260510174526 | 66 | 333 | 6.0 | 13.0 | 0.00 | 0.01 | 0.01 | 43 | 1016.9 |
| 20260510173010 | 66 | 67 | 5.0 | 15.0 | 0.00 | 0.01 | 0.01 | 44 | 1016.8 |
| 20260510171556 | 66 | 13 | 8.0 | 13.0 | 0.00 | 0.01 | 0.01 | 45 | 1016.9 |
| 20260510170038 | 66 | 3 | 7.0 | 14.0 | 0.00 | 0.01 | 0.01 | 45 | 1016.9 |
| 20260510164522 | 65 | 32 | 11.0 | 16.0 | 0.00 | 0.01 | 0.01 | 44 | 1016.9 |
| 20260510163003 | 65 | 44 | 8.0 | 13.0 | 0.00 | 0.01 | 0.01 | 47 | 1016.7 |
| 20260510161551 | 65 | 8 | 7.0 | 17.0 | 0.00 | 0.01 | 0.01 | 48 | 1016.8 |
| 20260510160036 | 65 | 15 | 5.0 | 13.0 | 0.00 | 0.01 | 0.01 | 49 | 1017.0 |
| 20260510154518 | 64 | 352 | 8.0 | 12.0 | 0.00 | 0.01 | 0.01 | 46 | 1017.1 |
| 20260510153003 | 64 | 52 | 7.0 | 12.0 | 0.00 | 0.01 | 0.01 | 49 | 1017.0 |
| 20260510151546 | 63 | 35 | 8.0 | 14.0 | 0.00 | 0.01 | 0.01 | 53 | 1017.0 |
| 20260510150030 | 63 | 335 | 7.0 | 13.0 | 0.00 | 0.01 | 0.01 | 54 | 1016.9 |
| 20260510144521 | 62 | 39 | 5.0 | 12.0 | 0.00 | 0.01 | 0.01 | 58 | 1016.7 |
| 20260510143056 | 61 | 65 | 6.0 | 13.0 | 0.00 | 0.01 | 0.01 | 58 | 1016.6 |
| 20260510141539 | 61 | 56 | 7.0 | 14.0 | 0.00 | 0.01 | 0.01 | 60 | 1016.2 |
| 20260510140022 | 61 | 69 | 5.0 | 11.0 | 0.00 | 0.01 | 0.01 | 64 | 1015.7 |
| 20260510134507 | 59 | 20 | 7.0 | 12.0 | 0.00 | 0.01 | 0.01 | 66 | 1015.6 |
| 20260510133052 | 59 | 53 | 6.0 | 11.0 | 0.00 | 0.01 | 0.01 | 69 | 1015.4 |
| 20260510131539 | 58 | 73 | 6.0 | 12.0 | 0.00 | 0.01 | 0.01 | 74 | 1015.3 |
| 20260510130020 | 57 | 38 | 5.0 | 10.0 | 0.00 | 0.01 | 0.01 | 78 | 1015.1 |
| 20260510124505 | 56 | 19 | 4.0 | 8.0 | 0.00 | 0.01 | 0.01 | 80 | 1015.2 |
| 20260510123053 | 57 | 355 | 3.0 | 11.0 | 0.00 | 0.01 | 0.01 | 81 | 1015.0 |
| 20260510121536 | 57 | 352 | 3.0 | 8.0 | 0.00 | 0.01 | 0.01 | 84 | 1014.6 |
| 20260510120022 | 57 | 37 | 4.0 | 8.0 | 0.00 | 0.01 | 0.01 | 86 | 1014.6 |
| 20260510114501 | 57 | 359 | 3.0 | 9.0 | 0.00 | 0.01 | 0.01 | 88 | 1014.2 |
| 20260510113048 | 58 | 8 | 2.0 | 6.0 | 0.00 | 0.01 | 0.01 | 91 | 1014.1 |
| 20260510111531 | 58 | 4 | 2.0 | 5.0 | 0.00 | 0.01 | 0.01 | 92 | 1013.7 |
| 20260510110017 | 58 | 33 | 0.0 | 3.0 | 0.01 | 0.01 | 0.01 | 93 | 1013.1 |
| 20260510104602 | 59 | 352 | 0.0 | 5.0 | 0.01 | 0.01 | 0.01 | 93 | 1012.9 |
| 20260510103037 | 59 | 17 | 1.0 | 4.0 | 0.01 | 0.01 | 0.01 | 92 | 1012.7 |
| 20260510101517 | 59 | 343 | 2.0 | 5.0 | 0.01 | 0.01 | 0.01 | 91 | 1012.2 |
| 20260510100006 | 59 | 64 | 5.0 | 8.0 | 0.00 | 0.00 | 0.00 | 91 | 1011.9 |
| 20260510094602 | 59 | 278 | 0.0 | 9.0 | 0.00 | 0.00 | 0.00 | 93 | 1012.2 |
| 20260510093054 | 59 | 22 | 1.0 | 5.0 | 0.00 | 0.00 | 0.00 | 93 | 1012.5 |
| 20260510091531 | 59 | 297 | 2.0 | 3.0 | 0.00 | 0.00 | 0.00 | 92 | 1012.3 |
| 20260510090016 | 59 | 346 | 2.0 | 4.0 | 0.00 | 0.00 | 0.00 | 92 | 1011.8 |
| 20260510084605 | 59 | 342 | 1.0 | 3.0 | 0.00 | 0.00 | 0.00 | 91 | 1011.5 |
| 20260510083051 | 60 | 336 | 0.0 | 0.0 | 0.00 | 0.00 | 0.00 | 90 | 1011.5 |
| 20260510081535 | 60 | 337 | 0.0 | 0.0 | 0.00 | 0.00 | 0.00 | 88 | 1011.1 |
| 20260510080021 | 61 | 336 | 0.0 | 4.0 | 0.00 | 0.00 | 0.00 | 87 | 1010.9 |
| 20260510074508 | 60 | 77 | 0.0 | 3.0 | 0.00 | 0.00 | 0.00 | 86 | 1010.8 |
| 20260510073056 | 61 | 333 | 0.0 | 1.0 | 0.00 | 0.00 | 0.00 | 86 | 1011.4 |
| 20260510071549 | 61 | 303 | 1.0 | 2.0 | 0.00 | 0.00 | 0.00 | 84 | 1011.0 |
| 20260510070032 | 61 | 25 | 0.0 | 1.0 | 0.00 | 0.00 | 0.00 | 85 | 1010.7 |
| 20260510064514 | 61 | 131 | 0.0 | 1.0 | 0.00 | 0.01 | 0.00 | 85 | 1011.1 |
| 20260510063000 | 62 | 131 | 0.0 | 0.0 | 0.00 | 0.01 | 0.00 | 83 | 1010.8 |
| 20260510061552 | 63 | 130 | 0.0 | 0.0 | 0.00 | 0.01 | 0.00 | 78 | 1010.5 |
| 20260510060036 | 64 | 131 | 0.0 | 0.0 | 0.00 | 0.01 | 0.00 | 76 | 1010.5 |
| 20260510054518 | 64 | 131 | 0.0 | 2.0 | 0.00 | 0.01 | 0.00 | 75 | 1010.3 |
| 20260510053017 | 64 | 227 | 0.0 | 0.0 | 0.00 | 0.01 | 0.00 | 76 | 1010.3 |
| 20260510051556 | 64 | 163 | 0.0 | 3.0 | 0.00 | 0.01 | 0.00 | 74 | 1010.3 |
| 20260510050036 | 64 | 335 | 0.0 | 0.0 | 0.00 | 0.01 | 0.00 | 73 | 1009.9 |
| 20260510044512 | 65 | 335 | 0.0 | 0.0 | 0.00 | 0.01 | 0.01 | 71 | 1009.5 |
| 20260510043102 | 65 | 335 | 0.0 | 0.0 | 0.00 | 0.01 | 0.01 | 69 | 1009.4 |
| 20260510041533 | 66 | 312 | 0.0 | 2.0 | 0.00 | 0.01 | 0.01 | 68 | 1009.4 |
| 20260510040026 | 66 | 309 | 0.0 | 3.0 | 0.00 | 0.01 | 0.01 | 65 | 1009.3 |
| 20260510034557 | 67 | 297 | 0.0 | 4.0 | 0.00 | 0.43 | 0.01 | 63 | 1009.5 |
| 20260510033038 | 67 | 347 | 1.0 | 6.0 | 0.00 | 0.43 | 0.01 | 62 | 1009.0 |
| 20260510031523 | 68 | 254 | 4.0 | 8.0 | 0.00 | 0.43 | 0.01 | 60 | 1008.4 |
| 20260510030001 | 68 | 242 | 3.0 | 5.0 | 0.00 | 0.43 | 0.01 | 59 | 1008.1 |
| 20260510024548 | 68 | 261 | 3.0 | 5.0 | 0.00 | 0.78 | 0.01 | 60 | 1008.0 |
| 20260510023024 | 68 | 248 | 2.0 | 5.0 | 0.00 | 0.78 | 0.01 | 58 | 1007.8 |
| 20260510021520 | 69 | 235 | 2.0 | 5.0 | 0.00 | 0.78 | 0.01 | 56 | 1007.7 |
| 20260510020050 | 69 | 259 | 1.0 | 4.0 | 0.00 | 0.78 | 0.01 | 54 | 1007.3 |
| 20260510014534 | 69 | 233 | 1.0 | 3.0 | 0.00 | 0.81 | 0.01 | 54 | 1007.1 |
| 20260510013022 | 71 | 242 | 0.0 | 1.0 | 0.00 | 0.81 | 0.01 | 52 | 1006.8 |
| 20260510011556 | 72 | 232 | 0.0 | 0.0 | 0.00 | 0.81 | 0.01 | 50 | 1006.8 |
| 20260510010036 | 73 | 221 | 0.0 | 0.0 | 0.00 | 0.81 | 0.01 | 49 | 1006.7 |
| 20260510004525 | 75 | 171 | 0.0 | 2.0 | 0.00 | 0.83 | 0.01 | 46 | 1006.5 |
| 20260510003001 | 76 | 221 | 1.0 | 3.0 | 0.00 | 0.83 | 0.01 | 43 | 1006.6 |
| 20260510001547 | 77 | 271 | 1.0 | 4.0 | 0.00 | 0.83 | 0.01 | 39 | 1006.4 |
| 20260510000042 | 78 | 280 | 1.0 | 3.0 | 0.00 | 0.83 | 0.01 | 40 | 1006.4 |
| 20260509234512 | 79 | 280 | 0.0 | 3.0 | 0.00 | 0.91 | 0.01 | 40 | 1006.3 |
| 20260509233057 | 81 | 300 | 0.0 | 3.0 | 0.00 | 0.91 | 0.01 | 38 | 1006.4 |
| 20260509231546 | 81 | 301 | 1.0 | 7.0 | 0.00 | 0.91 | 0.01 | 39 | 1006.4 |
| 20260509230028 | 81 | 342 | 1.0 | 3.0 | 0.00 | 0.91 | 0.01 | 37 | 1006.4 |
| 20260509224510 | 80 | 302 | 2.0 | 10.0 | 0.00 | 0.91 | 0.01 | 35 | 1006.3 |
| 20260509223101 | 81 | 285 | 2.0 | 9.0 | 0.00 | 0.91 | 0.01 | 36 | 1006.3 |
| 20260509221539 | 81 | 257 | 1.0 | 5.0 | 0.00 | 0.91 | 0.01 | 37 | 1006.3 |
| 20260509220022 | 81 | 271 | 3.0 | 7.0 | 0.00 | 0.91 | 0.01 | 37 | 1006.3 |
| 20260509214504 | 80 | 322 | 2.0 | 7.0 | 0.00 | 0.91 | 0.01 | 41 | 1006.4 |
| 20260509213049 | 80 | 294 | 3.0 | 10.0 | 0.00 | 0.91 | 0.01 | 37 | 1006.4 |
| 20260509211530 | 81 | 316 | 1.0 | 8.0 | 0.00 | 0.91 | 0.01 | 37 | 1006.4 |
| 20260509210017 | 80 | 199 | 2.0 | 9.0 | 0.00 | 0.91 | 0.01 | 39 | 1006.6 |
| 20260509204601 | 80 | 307 | 3.0 | 6.0 | 0.00 | 0.91 | 0.01 | 38 | 1006.8 |
| 20260509203050 | 80 | 345 | 1.0 | 8.0 | 0.00 | 0.91 | 0.01 | 39 | 1006.9 |
| 20260509201524 | 80 | 300 | 2.0 | 8.0 | 0.00 | 0.91 | 0.01 | 39 | 1007.0 |
| 20260509200009 | 79 | 219 | 2.0 | 12.0 | 0.00 | 0.91 | 0.01 | 42 | 1007.1 |
| 20260509194554 | 79 | 273 | 2.0 | 11.0 | 0.00 | 0.91 | 0.01 | 44 | 1007.2 |
| 20260509193038 | 79 | 296 | 2.0 | 13.0 | 0.00 | 0.91 | 0.01 | 42 | 1007.2 |
| 20260509191537 | 79 | 274 | 4.0 | 12.0 | 0.00 | 0.91 | 0.01 | 44 | 1007.3 |
| 20260509190006 | 79 | 276 | 2.0 | 7.0 | 0.00 | 0.91 | 0.01 | 48 | 1007.5 |
| 20260509184558 | 78 | 291 | 4.0 | 8.0 | 0.00 | 0.91 | 0.01 | 45 | 1007.3 |
| 20260509183047 | 77 | 299 | 3.0 | 9.0 | 0.00 | 0.91 | 0.01 | 45 | 1007.4 |
| 20260509181518 | 77 | 287 | 3.0 | 10.0 | 0.00 | 0.91 | 0.01 | 52 | 1007.4 |
| 20260509180113 | 76 | 326 | 3.0 | 10.0 | 0.00 | 0.91 | 0.01 | 49 | 1007.5 |